Showing default

PEARL-1A, 68990

Orbit data source: Space-Track

PEARL-1A, 68990 is a Taiwanese payload satellite in SSO that was launched on Sun, 03 May 2026 UTC via an FALCON 9 launch vehicle from the Air Force Western Test Range (AFWTR). Payload-class satellites include a variety of spacecraft equipped with specific instruments for various scientific and technological missions. These include communications satellites like Starlink; space stations such as the ISS; scientific satellites like the Hubble; Earth observation satellites from companies like Planet Labs, Umbra, and HawkEye 360; GPS; miniature CubeSats for education and research; and military/defense satellites.

Loading next visibility...
Identifier
68990, 2026-100L
Orbit
SSO
Country
Flag of TWTW / TWN
Related business
Manufacturer
Endurosat
Mission
Operational spacecraft
Bus & Motor
CUBESAT 6UXL, Unknown motor
Mass
8.8 kg wet, 8.8 kg dry
Launch date (UTC)
2026-05-03 (2 months ago)
Launch vehicle
FALCON 9
Launch site
Air Force Western Test Range (AFWTR)
Object type
Payload
Rocket body
Debris
Shape & HBR
Unknown shape, 14.5 m
Radar Cross Section
Medium (>0.1 m² and <1 m²)

Expand to show TLE details & history
Last TLE update: 1 day ago

TLE from 1 day ago
0 PEARL-1A
1 68990U 26100L   26174.47374741  .00001462  00000-0  15343-3 0  9990
2 68990  97.7307  71.7247 0006304 131.2480 228.9282 14.90992296  7637
Epoch: 2026-06-23T11:22Z
TLE epoch observation values (Epoch: 2026-06-23T11:22:11.776Z)
Latitude
-0.00005°
Longitude
-10.46916°
Altitude
600.772 km
Speed
7.558 km/s
True Right ascension
04h 46m 53s
True Declination
0° 00' 00"
Sunlit
Object was in daylight at epoch
Visualization orbit readout
Latitude
Unknown
Longitude
Unknown
Altitude
Unknown
Speed
Unknown
Apparent Right ascension
Unknown
Apparent Declination
Unknown
Sunlit
N/A
Visualization observer readout
Local Sidereal Time
06:05:44
Azimuth
Unknown
Elevation
Unknown
Doppler factor
Unknown
Orbital elements
Apogee altitude
596.253 km
Perigee altitude
587.465 km
Semi-major axis
6,969.996 km
Eccentricity
0.00063
Inclination
97.7307°
RAAN
71.7247°
Arg. of periapsis
131.248°
True anomaly
228.87377°
Mean anomaly
228.9282°
Eccentric anomaly
228.90098°
Mean motion
3.72988 °/min
Orbital period
96.52 mins
BSTAR
0.00015343
Loading maneuver chart data...
Computing Atmospheric mass density...
Loading historical data...
Loading historical data...
Loading historical data...
Loading historical data...
Loading historical data...
Loading historical data...
Loading historical data...

Documentation

Showing up to 5 results
|